This demonstration page uses our WeatherBlox Daily Observations layout. Learn more.

Left ArrowRight Arrow

31.84235, -102.49876

Hourly Observations for August 12, 2015

Temp ( °F °C ) Dew Point ( °F °C ) Humidity (%) Winds ( mph kmh ) Pressure ( in mb ) Visibility ( mi km ) Precip ( " mm )
12:53 am 00:53 Mostly Clear 84 28.9 47 8.3 27 27 ESE 10 17 30.01 1016 10 16 0.00 0.00
1:53 am 01:53 Partly Cloudy 84 28.9 50 10 31 31 SSE 12 19 30.03 1017 10 16 0.00 0.00
2:53 am 02:53 Clear 80 26.7 51 10.6 37 37 S 5 7 30.03 1017 10 16 0.00 0.00
3:53 am 03:53 Clear 76 24.4 54 12.2 47 47 SE 3 6 30.04 1017 10 16 0.00 0.00
4:53 am 04:53 Clear 76 24.4 53 11.7 45 45 ESE 5 7 30.03 1017 10 16 0.00 0.00
5:53 am 05:53 Clear 74 23.3 54 12.2 50 50 NE 7 11 30.04 1017 10 16 0.00 0.00
6:53 am 06:53 Clear 73 22.8 55 12.8 53 53 NE 9 15 30.05 1018 10 16 0.00 0.00
7:53 am 07:53 Sunny 74 23.3 57 13.9 56 56 ENE 8 13 30.07 1018 10 16 0.00 0.00
8:53 am 08:53 Sunny 81 27.2 56 13.3 42 42 E 7 11 30.08 1019 9 14 0.00 0.00
9:53 am 09:53 Sunny 86 30 54 12.2 33 33 SE 3 6 30.08 1019 10 16 0.00 0.00
10:53 am 10:53 Sunny 90 32.2 55 12.8 31 31 VRB 5 7 30.08 1019 10 16 0.00 0.00
11:53 am 11:53 Sunny 92 33.3 53 11.7 27 27 S 7 11 30.08 1019 10 16 0.00 0.00
12:53 pm 12:53 Sunny 94 34.4 53 11.7 25 25 SSW 6 9 30.06 1018 10 16 0.00 0.00
1:53 pm 13:53 Sunny 96 35.6 53 11.7 23 23 undefined N/A 30.04 1017 10 16 0.00 0.00
2:53 pm 14:53 Mostly Sunny 98 36.7 52 11.1 21 21 VRB 7 11 30.02 1017 10 16 0.00 0.00
3:53 pm 15:53 Sunny 99 37.2 51 10.6 20 20 E 12 19 29.99 1016 10 16 0.00 0.00
4:53 pm 16:53 Sunny 100 37.8 52 11.1 20 20 E 12 19 29.96 1015 10 16 0.00 0.00
5:53 pm 17:53 Mostly Sunny 97 36.1 52 11.1 22 22 NE 5 7 29.96 1015 10 16 0.00 0.00
6:53 pm 18:53 Mostly Sunny 97 36.1 52 11.1 22 22 ENE 10 17 29.95 1014 10 16 0.00 0.00
7:31 pm 19:31 Partly Cloudy 94 34.4 56 13.3 28 28 SSE 16 26 29.85 1011 10 16 0.00 0.00
7:53 pm 19:53 Mostly Cloudy 92 33.3 58 14.4 32 32 SSE 16 26 29.96 1015 10 16 0.00 0.00
8:53 pm 20:53 Cloudy 89 31.7 58 14.4 35 35 SSE 9 15 29.98 1015 10 16 0.00 0.00
9:53 pm 21:53 Mostly Clear 85 29.4 59 15 42 42 S 13 20 30.00 1016 10 16 0.00 0.00
10:53 pm 22:53 Clear 84 28.9 60 15.6 44 44 S 9 15 30.02 1017 10 16 0.00 0.00
11:53 pm 23:53 Clear 82 27.8 62 16.7 51 51 S 6 9 30.01 1016 10 16 0.00 0.00

Powered by AerisWeather